Weather in Reshety

Russia / Novosibirsk Oblast     54°12′51″N   80°13′01″E
temp.,
°C
wind,
m/s
gust,
m/s
humid.,
%
clouds,
%
prec.,
mm/h
press.,
hPa
HPBL,
m
22 january, fri
fri2201:00−15sw2496100 0.2 1012180
04:00−14wsw3696100 1.2 1011278
07:00−16w4896100 1.6 1011325
10:00−22w479978 0.0 1013132
13:00−23w479656 0.0 1015240
16:00−24wsw369686 0.0 1018153
19:00−26wsw359793 0.0 102089
22:00−27sw4697100 0.0 102288
23 january, sat
sat2301:00−26sw489795 0.0 1025213
04:00−25sw4997100 0.2 1026258
07:00−24ssw4896100 0.3 1027291
10:00−24ssw4896100 0.1 1029273
13:00−21ssw489598 0.1 1030338
16:00−19ssw4895100 0.1 1029511
19:00−19ssw3597100 0.3 1029132
22:00−19wsw2398100 0.2 103082
24 january, sun
sun2401:00−21w2399100 0.3 103093
04:00−23wnw3499100 0.1 1031112
07:00−25wnw3698100 0.3 1033183
10:00−31wnw3698100 0.0 1036101
13:00−32wnw369687 0.1 1038193
16:00−33w36957 0.0 1039225
19:00−36w349735 0.0 104254
22:00−38wnw339878 0.0 104325
25 january, mon
mon2501:00−40w239849 0.0 104418
04:00−41w129925 0.0 104618
07:00−42w1110028 0.0 104618
10:00−43sw1110032 0.0 104818
13:00−38ssw119428 0.0 104744
16:00−36e009487 0.0 104758
19:00−39e129685 0.0 104719
22:00−38ese229616 0.0 104718
26 january, tue
tue2601:00−38ese229638 0.0 104619
04:00−36e229592 0.0 104619
07:00−37e239483 0.0 104619
10:00−37e23930 0.0 104619
13:00−34ene23920 0.0 104694
16:00−33ne34920 0.0 104684
19:00−35ene34887 0.0 104735
22:00−36e348617 0.0 104844